COSMOS 2251 DEB, 34882

Orbit data source: Space-Track

COSMOS 2251 DEB, 34882 is space debris in LEO originally from a launch on Wed, 16 Jun 1993 UTC launched from the Plesetsk Missile And Space Complex (PKMTR). The debris from Iridium 33, an American commercial communications satellite, has been tracked extensively since its accidental collision with the defunct Russian satellite Cosmos 2251 in 2009. This event, occurring at high speed in low Earth orbit (LEO), generated thousands of pieces of space debris, significantly increasing the risk of further collisions. The Iridium 33 debris cloud has impacted space traffic management and orbital debris mitigation strategies, making it a subject of ongoing study in space situational awareness.

Loading next visibility...
Identifier
34882, 1993-036ACV
Orbit
LEO
Country
Flag of CISCIS
Related business
Manufacturer
Unknown
Mission
Spacecraft
Bus & Motor
Unknown
Mass
Unknown
Launch date (UTC)
1993-06-16 (33 years ago)
Launch vehicle
Unknown
Launch site
Plesetsk Missile And Space Complex (PKMTR)
Object type
Payload
Rocket body
Debris
Shape & HBR
Unknown shape, 0.1 m
Radar Cross Section
Small (<0.1 m²)

Expand to show TLE details & history
Last TLE update: 1 day ago

TLE from 1 day ago
0 COSMOS 2251 DEB
1 34882U 93036ACV 26119.54932066  .00000816  00000-0  16173-3 0  9996
2 34882  74.0457 322.0358 0081737  54.0039 306.8670 14.61870500905381
Epoch: 2026-04-29T13:11Z
TLE epoch observation values (Epoch: 2026-04-29T13:11:01.305Z)
Latitude
0.00006°
Longitude
-93.2283°
Altitude
655.435 km
Speed
7.548 km/s
True Right ascension
21h 28m 08s
True Declination
0° 00' 00"
Sunlit
Object was in daylight at epoch
Visualization orbit readout
Latitude
Unknown
Longitude
Unknown
Altitude
Unknown
Speed
Unknown
Apparent Right ascension
Unknown
Apparent Declination
Unknown
Sunlit
N/A
Visualization observer readout
Local Sidereal Time
21:08:04
Azimuth
Unknown
Elevation
Unknown
Doppler factor
Unknown
Orbital elements
Apogee altitude
742.465 km
Perigee altitude
627.005 km
Semi-major axis
7,062.872 km
Eccentricity
0.00817
Inclination
74.0457°
RAAN
322.0358°
Arg. of periapsis
54.0039°
True anomaly
306.11306°
Mean anomaly
306.867°
Eccentric anomaly
306.49049°
Mean motion
3.65655 °/min
Orbital period
98.45 mins
BSTAR
0.00016173
Loading maneuver chart data...
Computing Atmospheric mass density...

Documentation

Showing up to 5 results
|